Theta_e
318 312 312 309 309 309 307 305 293 296 295 292 292 291 291 292 291 290 291 291 289 293 295 294 295 293 293 293 294 295 296 295 300 294 295 303 307 308 309 308 309 310 311 311 312 317 321 321 322 326 325 324 324 323 321 321 321 320 318 319 319 319 318 317 317 318 318 318 317 318 317 316 316 316 316 316 316 317 317 317 317 317 317 317 317 318 318 318 319 319 320 320 320 320 320 319 318
311 311 309 311 309 306 301 301 295 291 293 291 292 292 292 292 291 291 291 291 294 294 295 296 295 295 294 294 295 296 298 299 302 302 305 305 305 306 307 309 307 309 311 311 311 315 320 321 323 326 325 324 323 323 321 321 321 321 320 318 319 318 318 318 318 317 317 316 317 316 317 317 316 316 316 316 317 316 316 317 317 316 317 317 317 317 318 318 318 319 319 319 320 320 320 319 318
310 310 308 308 308 306 302 300 292 289 289 288 292 292 292 292 291 293 294 294 294 294 294 294 294 294 294 294 294 295 296 299 298 299 302 305 302 307 308 309 308 310 311 312 311 314 320 322 322 325 325 324 324 323 322 322 321 321 319 318 318 319 319 318 317 318 317 317 316 317 316 316 316 315 316 316 316 316 314 316 316 316 316 316 316 317 317 317 318 318 318 319 319 320 319 319 317
313 310 309 307 301 304 299 297 294 291 289 291 290 291 291 293 293 294 295 295 293 293 294 293 292 297 295 293 295 295 296 299 301 302 302 304 305 309 309 308 310 309 310 313 312 312 317 322 323 324 325 325 324 323 323 322 321 321 320 320 320 319 319 319 317 316 315 316 316 315 316 315 315 315 314 315 316 316 315 314 316 316 316 316 316 316 317 317 317 317 319 318 319 319 319 318 317
311 310 310 306 304 297 298 293 292 292 289 292 290 290 291 294 294 294 294 294 293 293 294 295 294 295 296 295 296 295 299 301 299 302 304 306 307 308 309 309 309 308 309 311 311 311 317 321 323 324 325 325 324 324 323 322 322 321 321 320 319 318 318 317 317 316 315 314 315 316 315 314 314 314 314 314 314 316 314 315 316 316 316 316 317 317 317 317 317 317 318 318 318 318 319 318 317
309 309 309 307 300 299 297 291 291 291 294 292 291 292 292 293 294 294 293 294 294 294 294 294 294 294 294 296 297 297 302 299 303 301 304 306 307 307 308 311 307 308 309 311 311 311 316 322 323 324 325 325 324 324 323 323 323 321 321 321 318 317 316 317 315 316 314 313 315 315 314 314 313 313 312 313 314 314 314 315 314 315 316 316 316 317 318 317 317 318 317 317 318 319 319 318 318
307 306 306 302 298 300 293 292 292 292 292 290 292 292 292 293 294 294 293 293 293 294 294 293 294 294 292 297 297 299 303 301 301 306 306 311 310 308 309 308 308 308 309 310 311 311 316 322 322 324 325 325 325 325 324 324 322 321 322 321 320 320 318 316 317 316 315 314 314 314 313 313 312 312 312 312 312 314 314 315 314 316 316 316 316 317 317 317 317 317 317 317 318 318 319 318 318
308 303 303 298 297 296 293 292 291 293 291 290 291 291 291 293 293 294 293 294 293 292 293 294 293 292 295 292 296 303 300 299 305 304 306 306 308 308 308 308 307 308 309 309 310 312 319 321 322 324 324 324 325 325 325 324 323 322 322 321 320 319 317 317 315 314 313 314 313 312 313 312 312 311 311 311 311 313 313 314 314 316 316 315 316 316 317 317 317 317 317 318 318 318 318 318 318
305 304 302 299 295 294 292 292 292 290 291 290 291 291 293 293 293 295 293 294 292 294 292 294 294 292 295 294 294 301 300 301 302 302 306 306 306 308 307 307 306 307 308 307 309 313 316 320 321 323 323 323 323 324 325 325 323 322 322 322 321 319 317 317 317 314 314 314 313 312 311 312 311 311 311 310 311 312 313 313 312 316 316 316 315 316 316 317 317 317 317 317 317 317 317 317 317
303 303 298 298 297 292 291 292 289 291 291 291 291 292 292 292 293 295 295 292 293 293 294 294 295 293 295 294 297 300 302 300 301 302 305 305 307 307 307 307 307 307 306 307 308 311 314 317 320 321 322 322 322 323 325 325 324 323 322 321 321 319 318 317 316 316 315 313 313 312 311 311 311 310 310 310 311 312 312 313 312 315 315 315 315 316 316 317 317 317 317 318 317 316 316 316 316
299 300 301 296 293 290 290 292 292 291 290 291 292 293 294 294 294 293 295 295 294 293 292 293 292 292 294 295 297 302 299 298 300 301 304 305 308 307 307 308 308 307 306 307 308 311 315 317 318 319 319 320 321 322 324 325 324 324 322 322 321 320 318 318 318 317 316 315 313 313 312 311 312 310 309 310 310 311 311 312 311 313 315 315 315 315 316 316 317 317 317 317 317 315 314 314 314
298 299 299 294 292 292 292 291 291 292 291 292 292 293 294 293 294 293 293 292 293 291 292 293 294 297 293 295 298 300 299 298 302 304 304 305 305 307 308 308 308 307 308 308 309 310 312 314 317 317 317 318 319 320 322 324 324 324 323 322 321 320 319 319 319 317 316 315 314 313 312 311 311 310 308 309 309 311 311 311 311 312 314 315 315 315 315 316 316 316 317 317 316 315 313 313 313
301 298 297 293 292 291 291 288 291 290 292 292 293 293 295 293 292 294 295 295 293 293 293 295 295 294 294 295 301 300 298 300 300 302 304 304 306 307 308 307 307 307 308 310 308 309 313 313 313 315 317 318 318 319 321 322 323 323 322 322 321 321 320 319 319 318 317 316 315 314 313 312 311 310 309 308 308 309 311 312 310 311 312 313 314 315 314 315 315 315 316 316 316 314 312 311 311
301 301 297 293 288 290 290 291 289 291 292 293 293 292 294 293 294 295 295 293 294 293 295 297 295 296 293 296 298 299 301 300 301 300 302 304 305 306 307 307 307 306 308 309 308 309 311 311 310 314 318 319 318 319 319 321 322 322 322 321 321 321 320 319 319 319 318 317 316 315 314 312 310 310 309 309 309 310 311 311 310 309 311 311 312 313 314 314 314 314 314 315 315 313 310 309 309
303 298 298 295 291 289 290 291 292 291 293 293 291 292 291 294 294 295 294 294 296 297 294 295 297 294 295 295 298 299 300 299 300 302 303 303 303 305 307 306 307 308 307 307 308 308 309 311 310 311 315 317 318 318 319 319 321 322 322 321 320 320 319 318 318 318 317 316 315 315 314 313 312 311 310 310 310 310 309 308 308 308 309 310 311 312 313 313 313 313 314 313 313 311 308 306 307
303 299 296 294 291 291 291 290 288 290 292 293 290 291 293 293 293 293 295 296 296 293 294 296 295 296 298 297 299 299 299 300 301 302 304 303 303 304 304 305 305 306 307 307 306 308 309 310 310 310 311 314 317 319 319 319 319 320 321 321 320 320 320 319 319 319 318 318 316 315 314 314 313 313 311 310 309 307 307 306 306 306 307 308 310 311 311 312 313 313 312 312 311 309 305 304 304
301 301 292 292 291 290 292 292 290 292 292 290 288 291 293 293 292 293 292 293 293 295 292 297 295 297 295 298 298 297 301 301 301 302 304 304 303 303 304 304 304 305 305 306 307 306 308 309 310 310 310 311 314 316 317 318 319 319 318 319 319 319 318 318 318 318 317 316 316 316 315 314 314 313 312 311 309 309 306 307 306 305 306 306 308 310 310 310 311 311 311 310 309 306 303 301 301
301 295 293 291 293 291 294 293 293 290 292 291 289 292 294 293 291 293 293 293 293 295 293 296 297 297 298 299 296 299 300 301 301 302 302 303 304 303 303 304 304 303 305 305 306 306 306 307 309 309 310 310 311 314 316 317 318 316 316 317 317 317 317 317 317 317 314 316 316 315 314 312 312 312 312 309 310 309 308 304 305 306 307 307 308 308 309 308 308 308 308 308 308 305 301 304 304
298 295 293 292 293 293 293 292 293 292 293 292 291 291 294 294 293 294 292 294 293 292 294 295 295 297 299 299 298 296 300 301 300 302 302 302 302 302 303 305 304 304 304 305 305 305 306 306 307 307 309 310 311 312 313 315 315 314 314 316 317 317 315 316 315 315 316 315 316 315 313 312 312 312 311 311 310 307 307 306 306 307 307 307 307 307 306 306 306 306 307 306 306 302 304 305 304
295 295 293 294 294 290 290 289 291 290 290 291 290 290 290 292 292 293 291 293 292 292 294 295 294 296 298 299 300 298 298 299 300 301 301 303 303 303 303 304 304 304 305 306 306 305 305 306 306 306 308 309 310 309 311 311 313 313 313 314 314 315 315 316 315 315 316 316 316 314 311 312 313 311 310 304 304 309 310 306 305 305 305 305 305 304 305 304 304 305 305 304 304 304 305 303 303
294 294 294 293 289 292 290 289 290 290 289 292 291 289 289 292 292 292 292 291 292 293 296 297 297 297 299 300 300 300 299 298 299 301 301 302 304 304 304 304 305 305 306 307 307 306 305 305 306 306 307 308 309 308 310 309 311 312 312 312 313 313 313 314 314 315 315 316 316 313 312 313 313 311 312 311 310 310 310 310 309 307 308 308 304 306 306 307 305 306 306 305 305 305 304 304 304
294 292 290 289 290 292 290 290 288 289 287 290 289 290 291 292 290 290 291 291 296 298 297 299 299 300 299 297 297 298 298 298 298 299 300 301 302 303 304 305 306 306 307 305 306 306 306 305 306 306 307 307 308 308 308 309 310 311 311 312 312 312 313 313 312 313 313 315 314 313 313 313 312 311 311 311 310 310 309 309 308 308 308 308 307 306 306 306 306 305 305 305 304 304 304 304 304
294 290 289 290 289 291 289 289 287 287 290 290 289 292 290 290 292 293 292 292 296 293 294 295 296 296 294 294 295 295 297 297 298 299 299 300 301 302 302 303 303 303 305 304 306 306 306 305 305 306 306 307 308 308 308 309 310 310 310 311 311 311 311 311 311 311 311 313 314 314 311 310 310 310 310 310 310 310 309 308 308 308 308 308 308 306 307 307 306 305 305 305 305 304 304 304 303
292 293 289 289 288 291 287 289 285 287 289 290 291 289 290 290 290 291 290 294 297 297 294 294 295 295 294 294 295 295 296 297 298 299 300 300 301 303 304 302 303 304 305 305 305 305 306 305 305 305 306 306 307 308 308 308 309 309 310 310 310 310 310 310 310 310 311 311 312 311 310 310 309 309 310 310 310 310 309 309 309 308 307 307 308 307 307 306 306 306 306 305 305 304 304 304 303
293 291 289 289 288 289 288 287 286 286 288 288 288 290 292 292 292 288 291 294 296 297 298 296 296 295 295 294 295 296 296 297 297 298 299 300 300 302 303 304 304 304 303 304 305 305 305 306 305 304 305 305 306 307 307 307 308 309 310 310 309 310 309 310 310 311 310 310 310 311 311 309 309 309 309 310 310 310 309 309 308 307 308 308 308 306 307 307 307 306 306 305 305 305 304 304 304
292 292 291 289 290 289 288 287 287 287 289 288 289 290 292 291 289 288 293 297 295 293 293 294 294 294 295 296 296 296 296 297 298 298 298 299 299 298 299 300 301 301 302 303 304 305 305 305 304 304 304 305 306 306 307 307 307 307 309 309 309 309 309 310 310 309 309 309 309 310 310 309 309 308 309 309 309 309 309 310 308 308 307 308 307 307 307 306 306 306 306 306 305 305 304 304 304
290 290 291 291 289 289 288 289 289 287 289 288 290 291 291 289 289 294 296 293 291 294 295 295 293 295 297 297 297 296 296 296 297 298 298 298 298 298 298 299 300 300 302 302 303 304 305 304 304 304 304 306 306 306 306 306 307 307 308 309 309 309 309 310 310 309 309 309 309 310 310 310 309 310 309 310 309 309 309 309 308 308 308 308 307 307 308 307 306 306 306 305 305 305 304 305 303
290 289 289 288 288 289 289 288 290 289 289 287 290 291 291 289 289 292 297 291 292 294 296 296 296 297 297 297 296 297 297 297 297 297 296 297 298 298 298 298 299 300 301 301 303 304 304 303 303 304 304 305 306 305 306 306 307 307 308 308 308 309 309 309 309 309 308 309 310 310 310 309 309 309 310 310 309 309 308 308 309 308 308 308 308 307 307 307 306 306 305 305 305 304 304 304 304
288 287 290 289 289 291 291 290 291 288 291 288 288 288 288 287 290 297 294 292 293 294 295 297 297 297 297 297 297 297 298 299 298 297 297 298 299 299 299 300 300 300 302 302 303 304 303 303 302 303 304 304 305 304 305 306 307 307 307 308 308 309 309 309 308 308 309 310 310 310 310 309 309 309 309 310 309 309 309 309 309 309 309 308 308 307 307 306 305 305 304 304 303 303 303 303 304
287 290 291 292 293 293 291 291 291 290 291 290 289 290 295 293 294 297 292 292 294 296 297 298 297 297 297 297 297 297 299 299 298 299 299 298 298 298 298 299 300 300 301 303 302 302 302 302 302 303 304 304 305 304 305 305 306 307 307 308 308 308 308 307 307 309 309 309 310 310 310 309 309 308 309 310 310 308 309 309 309 309 309 308 308 307 305 305 304 305 305 304 303 302 303 304 303
292 291 293 294 293 293 290 290 290 291 290 291 293 290 294 298 297 296 292 291 293 294 296 296 297 297 297 298 298 299 300 300 300 299 299 298 297 297 297 298 298 299 300 301 301 302 301 302 301 301 303 303 304 304 305 305 306 306 306 306 307 308 307 307 307 308 308 309 309 309 309 309 309 309 309 309 309 308 308 308 308 308 309 308 306 306 305 305 305 304 304 303 304 303 303 304 303
291 292 293 292 292 293 289 288 289 291 292 292 292 289 292 295 297 294 291 292 292 293 294 296 297 297 297 299 299 299 300 301 301 300 299 298 297 296 297 297 298 298 299 300 302 301 301 302 302 301 302 302 304 304 305 305 305 306 306 306 306 307 306 307 307 308 308 308 308 308 309 309 308 309 309 309 308 308 308 308 308 309 309 307 306 306 305 304 304 304 304 304 303 303 303 303 303
292 292 294 292 291 291 290 288 288 288 288 292 291 290 292 295 294 291 291 292 292 292 294 296 297 298 298 299 299 299 300 302 303 302 301 301 300 297 297 296 298 298 298 299 300 301 301 301 301 302 302 302 303 303 305 305 305 305 304 305 305 306 305 306 306 307 307 307 307 307 308 308 308 308 309 309 308 308 308 308 308 309 308 306 306 305 304 305 304 304 304 303 303 302 303 303 303
292 290 291 288 289 290 290 287 287 290 289 291 292 289 292 295 296 295 293 293 293 292 294 296 298 298 298 299 298 299 300 301 302 302 302 301 301 300 298 298 297 297 298 298 299 300 301 301 302 302 303 303 303 303 304 305 305 305 305 304 305 304 305 305 306 306 306 306 306 306 308 308 307 308 308 308 308 308 308 308 308 308 307 306 305 305 305 305 304 304 303 304 302 302 301 302 302
290 290 290 289 287 286 288 289 288 289 289 288 289 289 290 293 295 296 297 294 292 292 294 296 297 298 299 299 299 299 300 301 301 302 301 301 302 301 300 299 297 297 297 297 298 299 300 301 302 302 302 303 302 303 304 304 304 303 304 304 304 304 304 305 305 305 305 306 306 307 308 308 307 308 308 308 307 307 306 307 307 307 306 305 305 304 304 304 303 303 302 302 303 302 302 302 302
291 290 289 287 288 289 289 289 287 287 288 289 289 289 292 293 294 295 296 294 292 293 295 295 296 297 298 299 299 300 301 301 302 302 302 302 302 301 300 298 297 297 296 296 296 297 298 299 300 301 302 302 302 302 303 302 302 301 301 302 302 303 303 304 305 305 306 306 307 307 308 307 307 307 308 307 307 306 306 306 306 307 306 305 304 304 304 303 303 302 302 301 302 302 301 301 301
288 289 289 288 288 290 289 287 286 285 286 290 289 289 289 290 292 294 296 295 293 293 294 297 299 300 300 300 299 300 301 301 303 302 302 302 302 302 302 299 298 296 295 295 296 297 298 298 299 299 301 302 301 301 301 301 301 301 302 302 302 303 303 304 304 305 305 306 307 307 307 306 307 306 306 306 305 305 305 306 306 306 305 304 304 304 305 305 304 304 303 302 301 301 301 301 301
290 289 289 289 287 289 288 287 285 289 288 290 287 287 290 292 295 296 296 293 292 294 296 298 300 300 299 299 299 300 300 303 304 303 302 302 303 303 302 303 301 298 296 295 296 298 298 298 299 300 301 301 301 301 302 302 303 303 303 303 303 304 304 303 304 305 305 306 306 306 306 306 306 306 305 306 305 305 305 305 305 305 305 304 304 304 304 303 304 303 302 301 302 300 301 302 301
288 290 290 288 289 288 287 283 285 286 287 289 289 288 291 294 295 294 292 292 294 295 297 298 298 300 300 299 300 300 301 302 303 302 303 302 303 303 303 303 302 301 300 298 298 297 297 298 299 300 301 301 301 301 302 302 303 304 304 305 304 304 306 306 306 307 306 305 306 305 305 305 305 305 306 305 305 305 305 305 305 305 305 305 303 303 303 303 303 302 302 300 300 301 300 302 301
290 290 289 289 286 287 289 286 284 286 287 287 288 286 291 294 293 293 291 291 293 294 293 294 296 297 299 298 298 298 299 302 302 301 301 301 302 302 303 302 301 303 303 303 301 299 297 298 299 300 301 301 302 302 302 303 304 304 304 303 303 304 304 304 304 304 304 304 304 305 305 305 305 305 306 306 305 305 305 305 305 305 305 305 304 303 303 303 303 302 302 301 301 300 300 299 300
288 290 289 287 286 287 286 288 288 287 285 285 287 291 294 293 293 296 293 290 291 295 294 295 296 295 296 297 297 298 298 300 301 301 301 301 301 301 301 301 302 303 303 303 302 301 299 299 299 300 300 301 301 302 302 303 302 301 302 302 302 302 301 302 302 302 303 303 303 304 304 305 305 305 305 305 305 305 305 305 305 305 305 305 304 303 303 303 304 303 303 301 300 299 300 301 299
289 287 289 287 287 287 287 287 287 289 289 286 286 287 290 295 293 292 294 293 295 294 295 299 300 298 297 296 299 300 300 299 299 300 300 300 300 301 302 302 302 303 302 302 301 301 300 300 299 299 299 300 300 302 302 302 301 301 300 300 299 300 301 302 301 302 304 303 302 305 305 304 304 304 305 305 305 304 305 305 305 305 304 304 304 303 303 303 304 303 303 302 301 301 300 300 300
287 286 285 286 287 286 286 286 288 287 286 287 285 286 285 295 292 295 290 290 292 295 295 297 298 298 297 298 300 300 299 300 301 300 300 300 301 301 301 301 302 301 301 301 301 301 301 301 299 299 300 300 300 300 302 301 301 301 301 301 302 303 302 305 305 306 306 306 306 304 305 305 304 304 304 304 305 305 304 305 305 305 304 304 304 303 302 303 303 303 303 302 301 301 300 298 299
287 284 284 286 287 286 286 286 287 287 287 288 286 288 285 286 293 290 287 288 292 293 295 297 298 298 297 298 299 300 300 299 300 300 300 300 300 300 299 300 300 300 300 301 302 302 302 301 300 299 299 299 300 300 300 301 301 302 302 302 302 303 303 304 304 302 303 303 302 303 303 303 304 304 304 304 304 304 304 304 305 304 304 304 303 303 302 303 303 303 303 302 301 301 300 299 299
286 283 285 286 286 286 286 288 287 287 284 286 286 289 284 286 292 288 288 291 294 294 295 297 298 299 298 300 299 301 300 300 299 301 301 300 300 300 300 300 300 300 300 300 300 301 302 302 301 299 298 299 300 300 300 300 301 301 302 302 301 302 303 303 303 302 301 302 301 302 302 302 302 303 303 304 304 304 304 304 304 304 303 303 303 303 303 303 302 302 301 300 300 300 300 300 299
285 285 286 286 286 286 287 287 287 286 283 284 284 285 284 287 294 293 289 290 292 295 296 296 298 299 300 300 301 300 299 299 299 298 300 300 300 300 300 299 300 300 300 300 300 301 302 303 303 302 301 300 298 299 300 300 300 300 300 301 301 302 302 302 302 301 302 302 301 302 302 302 302 302 302 303 303 303 303 303 303 303 303 303 301 302 302 302 302 301 301 301 301 299 300 299 299
287 287 289 287 286 287 285 286 286 285 282 285 281 282 283 283 292 293 294 295 295 295 295 294 296 298 298 299 301 303 299 300 300 300 300 300 300 299 299 300 300 301 301 300 301 301 301 302 303 302 302 302 300 298 299 300 300 300 300 301 301 301 302 301 301 301 301 301 301 301 301 302 301 301 302 301 302 302 302 302 302 302 302 302 301 301 301 301 301 301 301 301 300 299 299 299 298
288 287 287 287 285 283 285 284 285 282 283 282 282 281 283 282 288 294 294 292 289 294 295 296 296 297 298 299 299 298 297 298 299 299 301 301 300 300 300 300 300 300 301 301 301 301 301 301 302 302 301 301 301 300 298 299 299 300 300 300 300 300 300 300 300 300 301 300 300 300 301 300 300 301 301 300 301 301 300 300 301 301 300 301 300 301 301 301 301 300 300 299 299 299 299 298 298
287 286 287 284 283 284 281 283 280 282 283 282 283 282 280 281 289 293 293 293 293 292 294 296 296 296 299 300 301 299 298 297 298 301 301 302 301 301 301 300 301 301 300 300 300 300 300 300 301 301 299 300 300 301 301 299 298 299 299 299 299 300 299 300 300 300 301 300 301 300 300 301 301 301 301 301 301 301 300 300 300 300 300 300 300 300 300 300 300 299 299 299 299 298 298 298 297
286 286 286 283 280 278 275 280 277 278 282 280 282 283 280 287 290 294 293 296 296 294 294 294 293 294 296 299 300 297 300 299 299 300 301 303 303 302 301 301 300 300 300 300 299 299 299 299 300 299 298 298 299 299 300 301 300 300 300 299 299 299 299 299 300 300 300 300 301 300 300 300 301 301 301 301 301 300 300 300 300 300 300 300 300 300 299 300 299 298 299 298 298 298 298 298 297
287 287 285 286 285 280 276 280 280 282 283 281 281 280 284 285 290 289 292 293 292 290 289 290 290 292 293 294 293 294 295 297 299 299 301 302 302 302 302 301 301 300 300 299 299 298 299 299 299 299 298 298 298 298 299 299 299 299 300 300 300 300 300 300 300 301 300 300 301 300 300 300 300 301 300 301 300 300 299 300 300 299 300 299 299 299 299 298 298 298 298 298 298 298 297 297 296
286 286 287 284 284 287 282 282 280 279 281 282 280 282 289 290 293 293 294 292 290 291 291 290 290 291 291 292 293 295 297 298 300 299 301 301 301 302 302 302 301 300 299 299 298 298 299 298 297 297 297 296 297 297 297 298 298 298 298 299 299 299 299 300 301 300 300 300 300 300 300 300 300 300 300 299 299 299 299 299 299 299 299 298 298 298 298 298 298 297 297 297 297 297 296 295 296
286 285 284 285 284 285 276 273 272 272 278 279 285 284 288 292 293 293 292 290 293 290 289 289 290 292 293 294 296 297 298 300 301 301 301 301 302 300 301 302 301 299 299 299 298 298 298 297 297 297 296 296 296 296 296 296 297 297 297 297 298 298 299 299 300 299 298 299 299 299 299 299 299 299 299 299 299 299 298 298 299 299 298 298 297 297 297 297 297 296 296 296 296 296 295 295 295
285 283 285 283 284 285 283 281 278 280 278 281 281 282 285 285 285 295 293 292 294 293 291 291 292 293 292 295 298 298 300 301 301 299 299 299 301 301 302 301 301 300 299 298 297 296 297 297 297 296 296 296 295 295 295 295 296 296 296 296 296 296 296 297 297 297 298 298 298 298 298 298 299 298 297 298 298 297 298 296 298 297 297 296 296 296 296 296 295 296 296 295 295 295 294 295 295
285 284 286 284 283 282 283 281 274 275 274 278 282 280 280 284 287 291 291 292 294 294 294 293 294 294 295 297 298 298 299 300 300 299 301 300 300 300 301 301 300 300 298 298 297 296 295 295 295 295 294 294 293 294 294 295 295 295 295 295 295 295 295 295 296 296 297 297 297 297 297 296 297 297 297 297 297 297 297 296 296 296 296 295 295 295 295 295 295 295 295 295 294 294 294 294 294
284 284 285 283 283 285 282 283 283 282 278 273 279 280 283 289 288 291 292 293 294 293 293 294 295 297 297 297 298 298 299 299 300 301 301 301 301 301 301 301 300 299 298 297 296 295 295 295 294 294 293 293 293 293 294 294 294 294 294 294 294 294 294 294 294 295 296 295 295 295 295 295 295 295 296 295 296 296 296 296 295 295 295 295 295 294 294 294 294 295 294 294 293 293 293 294 294
283 284 284 283 284 285 285 282 282 282 279 278 278 278 284 291 292 291 293 294 295 294 294 296 296 297 296 296 297 298 298 301 301 301 301 300 300 300 300 301 301 299 297 296 295 295 295 294 294 294 294 293 293 293 293 293 294 293 293 293 293 293 293 293 293 293 294 293 293 293 294 294 294 294 295 295 295 294 295 295 295 294 294 294 294 293 294 294 294 293 293 293 292 292 292 293 292
286 286 285 286 283 282 279 280 279 279 280 277 276 278 286 292 288 292 293 294 295 293 292 294 295 294 295 295 296 296 297 299 301 301 299 298 298 299 299 299 299 298 296 295 295 294 293 294 294 293 293 293 293 293 292 292 293 293 293 293 292 292 292 292 293 293 293 292 293 293 293 293 294 293 293 294 294 294 294 294 293 293 293 293 293 293 293 293 293 292 291 291 292 291 291 291 291
Wind_Speed
5 3 2 0 1 2 3 3 4 1 2 2 2 3 2 1 2 4 4 5 7 4 4 3 4 6 5 2 6 8 5 5 2 3 3 3 2 3 6 8 6 8 11 10 11 10 10 13 13 11 11 10 9 9 7 6 5 6 5 6 5 3 3 2 2 1 1 1 2 2 2 2 2 2 4 5 4 5 5 4 5 6 6 6 6 7 7 7 8 8 9 9 8 9 9 9 9
2 3 0 2 0 2 2 2 1 0 2 3 3 1 3 6 4 8 9 10 3 5 3 2 5 3 3 5 5 6 9 12 3 2 1 2 2 3 8 10 9 11 10 10 10 10 10 12 14 12 11 11 10 9 8 6 6 6 6 6 5 4 4 2 2 1 0 1 1 2 1 2 2 2 3 4 5 3 6 6 5 5 6 6 7 8 8 8 8 8 8 7 8 8 8 9 9
2 4 2 2 1 2 3 1 3 1 2 3 2 3 5 7 8 7 7 6 5 4 3 2 1 3 7 4 5 6 3 1 3 3 3 3 4 6 12 12 10 9 10 8 10 10 8 11 13 12 12 12 10 9 9 8 8 7 7 6 4 4 4 2 2 1 0 0 1 0 1 1 2 2 2 3 3 4 2 4 4 5 5 6 6 7 6 7 7 6 7 8 7 8 8 9 9
1 3 2 2 2 2 2 2 1 2 3 2 3 5 6 7 7 6 7 7 5 4 4 6 7 2 6 8 4 3 10 5 6 6 3 4 2 5 11 13 11 7 9 7 9 10 9 10 10 13 13 12 11 10 9 9 8 8 7 6 6 5 4 3 2 1 0 0 0 1 1 1 1 2 2 1 2 3 2 3 5 4 6 5 5 5 5 7 6 7 7 7 8 8 8 9 8
1 3 2 2 2 2 1 1 1 1 2 0 2 2 6 4 5 7 7 6 4 3 5 4 4 4 5 8 3 4 2 2 3 7 2 1 2 4 10 12 10 8 10 10 10 10 9 13 13 13 12 12 11 11 10 10 9 8 8 7 7 6 5 3 3 2 1 1 1 1 1 1 1 1 1 2 1 2 2 2 4 4 4 5 5 6 5 6 6 6 6 7 7 8 8 8 8
1 1 5 2 1 2 2 3 3 4 2 1 4 3 3 4 5 7 8 3 2 3 2 5 4 1 4 6 5 5 2 2 4 5 3 3 4 6 11 10 9 8 10 11 10 9 9 13 14 12 12 12 12 11 11 11 10 9 9 8 7 6 4 4 4 3 2 1 1 0 1 1 2 1 1 1 1 1 2 2 2 3 4 4 4 5 5 4 5 5 6 7 7 7 7 7 8
1 1 2 3 3 2 2 4 4 4 1 2 2 2 0 6 4 9 8 5 2 3 3 4 0 4 5 3 4 12 5 1 3 2 4 3 5 8 11 9 8 10 11 10 9 9 10 14 14 12 12 12 12 12 12 11 10 10 9 9 8 7 6 5 4 3 3 1 1 0 1 1 1 1 1 1 1 2 2 2 2 2 4 3 4 4 4 4 5 6 6 6 7 7 7 7 7
1 2 2 3 2 2 2 1 5 3 1 2 2 3 1 5 5 10 10 8 7 7 8 6 3 3 4 2 4 4 1 5 2 1 3 3 6 9 10 8 9 10 11 10 9 8 10 14 14 13 13 12 12 11 12 12 11 10 10 9 9 8 7 6 5 4 3 2 1 0 1 1 1 1 1 1 2 2 2 2 2 3 3 3 4 4 4 5 5 6 6 6 7 7 7 7 7
3 1 1 2 4 1 2 4 3 1 2 2 3 3 3 1 7 9 11 6 3 6 4 8 7 4 1 1 8 2 2 6 6 1 2 2 7 10 7 10 11 10 11 10 9 8 10 13 14 13 13 13 12 12 12 12 11 11 11 10 9 8 8 7 6 5 4 4 2 1 1 1 1 1 2 1 2 2 2 2 3 3 3 3 4 4 4 4 5 5 6 6 6 6 7 7 7
2 2 2 1 2 4 3 2 3 1 2 1 2 1 4 4 7 7 10 7 6 4 4 2 5 12 4 8 7 8 3 1 3 5 5 5 6 9 9 11 11 12 12 10 8 9 9 12 14 13 13 13 13 12 12 12 12 12 11 11 10 9 8 8 7 6 5 4 4 3 1 1 0 1 1 2 2 2 3 3 3 3 3 4 4 4 4 4 4 5 5 6 5 6 7 7 7
1 3 2 3 3 4 5 1 3 2 2 1 4 5 3 6 7 8 7 7 4 4 4 5 6 13 9 8 7 3 2 2 6 11 10 8 6 9 9 10 9 11 11 11 9 9 9 11 13 13 13 13 13 13 12 12 13 12 12 11 11 10 9 8 8 7 6 5 4 4 2 1 1 1 1 2 2 2 3 3 3 3 4 4 4 4 4 4 4 5 5 5 6 6 6 7 7
2 1 1 3 5 4 1 3 1 1 2 2 3 6 4 8 6 7 10 9 7 7 6 11 1 3 8 7 5 2 2 5 7 2 5 8 7 8 8 7 9 9 10 11 9 8 9 10 10 11 13 13 13 13 13 13 13 13 12 12 11 10 10 9 8 8 7 6 5 4 3 2 2 1 1 1 2 2 3 3 3 3 4 4 4 4 4 5 5 5 5 5 5 6 6 6 6
2 1 2 4 1 2 2 3 1 2 2 5 5 5 7 9 11 9 9 10 3 7 10 15 3 4 4 5 1 0 5 4 2 1 3 7 7 6 5 6 8 9 8 9 10 10 9 9 10 10 11 13 13 13 13 14 14 14 13 12 12 11 11 10 9 8 7 7 5 5 4 3 2 2 1 1 1 2 2 3 3 3 3 3 3 4 4 4 5 5 5 5 5 5 6 7 6
2 1 1 3 2 0 2 1 1 3 3 4 3 6 9 6 9 5 5 9 11 10 1 6 6 1 11 4 7 6 4 5 2 0 3 5 4 4 5 5 7 8 8 9 10 10 10 10 10 10 10 11 11 12 13 13 14 15 13 13 12 12 11 10 9 9 8 7 6 6 4 4 3 3 2 1 1 1 1 2 2 3 3 3 3 3 4 4 4 4 5 5 4 5 6 6 6
1 1 1 1 1 1 3 2 2 3 3 5 5 9 6 5 1 6 9 10 11 4 3 3 7 4 2 9 2 2 4 3 2 2 4 5 5 4 4 4 6 6 7 8 9 10 11 10 10 9 10 10 11 9 9 12 13 13 14 13 12 12 11 10 10 9 9 8 7 6 5 4 4 4 3 2 1 1 1 2 1 3 3 3 4 3 4 4 4 4 4 4 4 4 5 5 5
2 3 0 2 1 3 3 3 1 1 2 4 4 1 8 2 4 7 8 8 2 2 2 6 8 8 3 5 4 4 3 3 2 4 5 6 5 4 4 4 5 7 7 8 9 9 9 10 10 9 10 11 10 9 9 9 12 12 12 11 10 10 9 9 8 8 7 7 7 5 6 5 5 5 4 4 3 1 2 2 2 3 4 4 4 4 4 4 4 4 4 3 3 4 4 5 4
0 2 3 1 3 4 4 3 6 2 4 3 4 7 11 7 5 4 3 3 9 6 6 8 10 6 11 5 4 3 3 2 3 6 7 5 5 5 4 5 5 6 5 8 9 9 9 10 12 9 11 12 11 10 8 9 9 7 9 11 10 10 9 9 8 7 7 7 6 7 6 6 5 5 5 5 3 4 1 2 2 3 4 4 3 4 4 4 4 4 4 3 2 2 2 2 2
2 4 2 3 0 4 5 5 6 2 1 7 9 10 8 7 5 4 3 7 10 8 7 9 11 14 13 7 3 3 2 3 5 7 7 6 5 6 6 7 7 8 8 8 10 10 10 10 11 12 10 13 12 9 7 7 8 9 12 11 11 11 11 10 9 10 10 8 9 7 7 6 5 5 4 4 4 3 4 4 4 4 4 4 3 4 4 4 4 4 4 3 2 2 3 3 1
3 1 2 3 3 1 1 3 2 1 2 5 6 6 7 1 7 5 6 7 9 10 13 12 14 17 17 17 11 6 5 5 5 6 7 9 8 10 8 7 9 8 8 8 8 12 10 9 10 12 12 11 12 11 7 8 9 9 11 11 8 10 10 11 10 10 9 8 7 7 6 5 5 4 4 1 2 1 4 3 5 5 5 5 4 4 6 5 5 5 4 3 2 2 4 3 2
1 3 3 2 2 2 1 3 3 2 2 4 5 5 6 1 1 5 7 4 4 13 11 10 15 18 19 19 15 14 10 10 8 8 9 10 10 11 10 10 9 10 11 9 9 9 11 11 12 12 13 12 11 10 9 9 9 9 9 9 9 8 9 8 10 9 8 8 7 6 6 5 5 5 4 5 3 5 5 7 7 6 6 7 5 5 7 7 6 6 5 4 4 4 3 3 2
2 3 3 2 0 3 1 1 2 2 3 2 3 4 5 7 2 5 3 7 13 15 15 11 12 16 10 6 10 13 14 15 13 12 12 12 12 10 10 10 10 9 8 7 7 9 13 13 11 13 13 12 12 10 10 10 9 9 9 9 9 8 8 8 8 8 8 8 7 6 6 5 4 5 4 4 4 4 4 4 4 5 4 4 7 5 4 3 4 3 3 4 4 3 3 3 3
4 1 3 1 1 0 2 1 2 1 2 1 4 6 6 4 2 9 7 9 7 3 3 11 14 9 5 3 5 5 10 13 15 15 16 16 16 15 11 10 8 5 5 7 10 10 12 13 13 11 12 13 13 11 11 10 10 9 9 9 9 8 8 8 8 7 7 8 7 7 5 5 5 5 5 5 4 4 4 4 4 4 4 4 4 4 4 3 3 4 4 4 4 3 3 3 3
3 2 1 1 2 1 1 1 1 2 3 4 5 3 3 6 5 8 12 17 7 5 2 2 3 4 3 2 4 7 9 11 13 14 15 16 16 16 14 12 11 10 8 9 8 9 10 12 13 12 12 12 14 12 10 9 9 9 9 9 9 9 8 8 8 8 8 7 7 6 6 6 6 5 5 5 5 5 5 4 4 4 4 4 4 4 4 4 4 4 4 4 4 4 4 4 4
2 1 3 2 2 1 0 0 2 2 4 4 0 2 5 4 7 2 10 19 21 9 4 4 5 5 5 8 7 9 9 10 12 12 13 15 15 16 14 13 12 9 8 10 9 9 9 13 13 13 12 12 11 12 11 10 9 9 9 9 9 10 8 8 8 8 7 7 7 7 7 6 6 6 6 5 5 5 5 4 4 4 4 4 4 3 4 4 4 4 4 4 4 4 5 5 4
3 2 4 3 2 1 0 1 2 3 4 1 2 4 6 8 5 2 12 18 14 14 12 11 9 8 9 10 13 13 13 13 14 13 10 10 11 12 11 9 9 8 11 12 9 9 10 11 13 14 13 14 11 11 11 10 9 9 9 9 9 9 8 8 8 7 7 7 7 8 7 7 6 6 6 6 5 5 5 5 4 5 4 4 4 4 4 4 4 4 4 4 4 4 4 5 5
3 2 7 3 2 1 1 1 2 4 1 3 5 8 5 4 1 9 21 12 2 2 5 7 5 7 9 10 12 11 11 13 13 13 14 12 11 11 14 11 10 12 14 11 10 10 9 10 12 14 14 13 12 10 10 10 10 10 10 10 8 8 9 8 8 7 7 7 7 7 8 7 7 6 6 6 5 5 5 5 5 5 5 4 4 4 4 4 4 4 4 4 5 5 5 5 5
3 7 4 4 2 2 2 4 1 2 3 4 4 5 3 4 3 8 4 1 3 3 5 4 4 8 9 8 8 8 10 12 12 10 9 9 10 11 13 11 12 14 10 12 11 10 8 10 11 13 13 12 10 11 10 11 10 10 10 9 8 9 9 8 7 7 7 7 7 7 8 8 7 6 6 6 5 5 5 5 6 5 5 5 4 4 4 4 4 4 4 4 4 4 5 4 4
3 7 8 5 2 2 2 5 1 2 4 4 3 8 1 2 2 12 2 3 2 5 7 5 5 7 8 8 8 7 7 9 7 7 12 12 9 9 10 10 12 11 11 12 10 8 9 12 12 12 12 12 11 11 10 10 10 10 10 8 9 9 8 8 7 7 7 7 7 7 7 7 7 7 7 6 6 6 6 6 6 5 5 4 4 4 4 3 4 4 4 4 5 4 5 5 5
5 1 3 3 3 4 6 1 3 4 1 1 1 8 5 5 9 8 2 1 4 5 8 8 8 8 8 7 6 6 6 7 6 8 10 9 9 8 11 10 9 9 8 10 10 9 10 10 11 12 12 11 12 12 10 10 9 8 9 9 8 7 8 8 8 8 8 7 6 7 7 8 7 7 7 7 7 6 6 6 6 6 5 4 4 4 4 4 4 4 4 4 4 4 5 6 5
1 3 2 3 4 2 6 2 2 3 1 3 3 7 1 6 13 5 2 3 5 7 8 9 9 7 6 6 5 6 6 7 7 8 8 8 8 9 11 9 8 8 6 5 8 10 8 6 7 7 10 11 12 11 10 8 9 8 7 7 7 7 7 8 8 7 7 6 6 7 8 8 8 7 7 7 6 6 7 7 7 6 5 5 4 3 4 4 5 5 5 4 5 5 6 6 6
3 0 2 1 3 1 4 4 8 2 2 6 3 4 9 4 6 3 3 1 4 7 11 11 9 7 6 5 5 6 7 5 7 7 7 8 8 7 9 8 8 8 6 7 8 10 9 8 6 6 8 11 10 11 10 9 8 8 7 7 7 7 7 7 7 7 6 6 6 6 8 8 8 8 7 6 6 6 6 7 6 6 4 4 4 4 4 4 4 5 4 5 5 5 6 6 6
0 2 3 1 2 1 3 5 9 3 1 4 4 7 8 9 11 4 3 3 5 9 12 10 9 7 6 4 5 5 6 5 5 5 4 4 5 6 7 8 7 7 8 7 7 6 8 9 8 8 8 11 10 11 10 9 8 8 7 7 6 7 6 6 6 6 6 6 6 6 7 8 8 8 8 7 6 6 6 6 6 4 5 4 4 4 4 5 5 5 5 5 5 6 6 7 6
1 2 1 1 1 3 3 3 2 2 5 1 3 7 10 9 4 4 3 2 4 9 12 10 9 8 6 4 5 5 6 4 2 1 3 4 2 3 5 5 6 7 7 7 7 6 8 8 8 9 10 11 11 10 10 8 7 7 7 7 7 6 7 7 6 6 6 6 6 6 7 8 8 8 8 8 7 7 6 6 5 5 4 4 4 4 5 5 5 4 5 5 6 7 7 8 7
2 1 1 1 2 2 3 4 1 5 3 3 1 4 13 12 8 4 7 3 7 9 10 10 8 6 5 5 5 5 5 4 4 5 6 6 4 4 3 4 5 5 6 7 7 7 7 7 7 8 8 9 8 8 9 8 7 6 5 6 6 6 7 6 6 6 6 6 6 7 8 8 8 9 8 8 7 7 6 6 5 4 4 4 5 5 5 5 5 5 6 6 6 6 7 7 8
1 2 1 1 3 4 5 5 3 8 2 3 3 8 18 18 15 13 12 1 6 10 9 9 8 7 5 4 4 4 4 4 4 5 7 6 6 4 3 2 2 3 4 5 6 6 6 5 5 7 7 7 7 7 6 6 5 5 5 5 6 7 6 7 7 7 7 7 8 8 8 8 8 8 8 8 7 6 6 6 6 5 4 5 5 6 6 6 6 6 7 7 6 7 7 7 7
1 2 0 0 4 1 3 1 4 7 8 7 7 8 11 15 14 14 10 5 7 10 9 8 8 6 5 4 3 3 3 3 3 5 6 5 5 5 4 2 1 1 2 3 5 5 6 6 5 5 7 7 6 6 5 6 5 6 6 6 6 7 7 7 8 8 7 7 8 8 8 7 7 7 7 7 6 6 6 6 6 6 6 5 6 7 7 6 7 7 8 8 8 6 7 7 6
5 4 2 0 2 5 0 0 2 3 5 7 5 8 13 17 18 16 13 4 7 10 10 8 7 5 3 3 2 3 3 3 4 5 4 4 5 5 4 3 1 1 2 3 4 6 7 7 6 7 6 6 6 6 6 7 7 6 6 7 8 7 8 8 7 7 7 7 7 7 7 6 6 6 6 7 7 7 7 6 6 7 6 7 7 8 8 8 7 7 6 6 8 8 7 6 5
1 4 1 1 2 4 2 1 2 2 6 6 2 9 16 17 17 12 6 4 10 11 9 8 7 4 3 3 3 3 3 2 2 2 3 3 4 5 4 3 3 1 1 2 4 5 5 6 7 6 5 7 7 7 7 7 7 7 5 6 6 5 6 7 7 7 7 6 6 6 6 6 6 7 7 8 8 8 8 7 8 7 7 7 8 7 7 7 7 6 6 6 6 8 7 5 4
1 1 1 2 1 5 2 1 1 0 3 7 5 13 17 17 13 9 5 7 5 2 3 3 3 4 3 2 3 3 3 3 2 2 3 4 5 4 3 3 3 2 1 1 2 3 4 5 6 6 6 6 7 7 6 7 6 6 5 2 4 3 4 4 4 4 5 5 6 7 7 7 8 8 9 9 8 9 9 8 7 7 8 7 6 7 7 8 7 8 8 7 6 6 7 5 6
0 2 2 4 2 3 3 2 1 2 2 6 10 12 14 11 4 2 1 3 4 5 5 7 6 6 4 2 3 4 4 3 3 4 4 4 4 3 4 3 3 2 1 1 0 2 3 4 4 5 5 6 6 7 7 6 5 4 3 0 0 1 1 2 3 3 4 4 5 6 7 7 9 8 8 8 7 8 9 8 7 6 7 7 7 7 7 8 8 8 8 9 8 8 6 6 7
0 1 1 1 1 2 1 3 5 3 1 2 11 9 7 1 2 1 3 2 4 2 4 7 6 7 6 5 5 5 4 3 3 3 3 4 4 4 4 3 3 2 2 3 3 2 1 3 3 4 4 5 6 6 8 6 4 4 4 2 1 2 1 3 3 4 5 5 5 6 7 7 7 7 7 8 8 8 8 7 7 7 6 7 7 7 8 8 8 8 8 8 9 8 8 5 5
1 3 1 1 3 2 2 4 8 3 2 2 8 8 6 0 4 6 2 4 4 1 3 5 4 3 3 5 4 3 4 4 4 4 4 4 4 4 2 3 4 3 4 4 3 3 3 2 2 2 3 3 4 5 6 6 6 6 6 5 6 5 5 6 7 7 6 6 7 4 5 6 6 6 6 7 8 7 7 8 7 7 7 6 6 7 7 6 7 7 7 7 8 9 8 7 6
2 1 1 2 3 2 0 5 4 5 6 2 1 3 8 2 7 3 2 5 7 5 5 7 4 4 4 5 3 3 2 2 3 4 4 4 2 3 2 3 4 4 4 4 3 3 2 2 1 2 2 2 2 3 5 5 6 6 8 7 6 6 6 5 4 2 2 2 2 3 3 4 6 6 6 7 7 7 7 7 7 7 6 6 6 6 6 7 6 6 6 7 7 6 8 9 9
3 2 2 3 2 0 1 1 1 4 2 2 1 1 5 10 6 2 2 4 6 6 8 8 7 6 7 5 4 3 3 3 2 2 2 2 2 2 3 3 3 4 4 4 3 3 3 2 2 1 1 2 2 3 4 5 5 5 6 7 6 6 5 3 1 1 1 0 1 2 2 3 4 5 5 6 7 7 7 6 6 6 6 6 5 6 6 6 5 5 6 6 6 7 8 9 8
2 3 2 1 1 2 2 1 2 1 4 4 4 1 3 6 4 2 1 5 3 6 8 10 9 8 7 7 5 4 4 2 2 2 2 2 2 2 2 2 3 3 3 3 3 3 3 2 1 1 0 0 1 3 4 6 5 4 4 5 5 5 4 4 2 1 1 2 2 2 3 3 4 4 5 5 6 6 6 6 5 5 6 6 5 6 6 6 7 7 6 6 7 7 7 8 8
2 4 3 4 3 3 0 1 1 1 0 4 4 3 3 9 1 2 2 2 6 4 4 7 9 9 8 6 5 3 2 2 2 3 3 3 2 2 2 3 1 2 2 2 2 2 2 2 3 3 3 1 1 1 2 4 5 4 5 5 5 5 3 3 3 3 3 3 4 4 4 4 4 4 5 5 5 5 6 6 5 6 6 6 5 6 6 6 6 7 7 7 7 8 7 7 8
9 5 3 2 1 1 1 1 0 1 3 2 3 2 3 6 2 2 2 1 1 2 2 2 4 5 6 5 5 3 3 2 2 2 3 3 2 3 2 1 1 1 1 2 2 3 3 3 2 4 4 2 2 2 2 2 3 4 4 5 5 6 5 3 4 4 3 3 3 3 3 3 3 3 3 4 5 5 5 5 5 5 5 5 5 5 6 6 6 6 6 7 8 8 7 7 8
3 2 2 2 3 2 2 1 1 2 3 4 2 2 3 4 3 1 3 3 4 4 5 4 4 9 8 7 6 4 2 2 1 2 2 2 2 3 3 2 1 1 1 2 2 2 3 2 2 4 4 4 3 2 2 2 2 3 3 3 4 5 4 3 4 4 3 4 3 3 2 2 3 3 3 3 3 3 3 3 4 4 4 5 5 5 5 4 4 4 5 5 6 7 8 7 6
2 2 2 2 2 2 2 2 3 3 3 3 1 3 3 11 13 6 7 6 7 7 6 5 4 5 6 5 4 1 1 1 3 3 3 3 4 4 4 2 1 1 1 1 2 2 2 2 2 3 4 4 3 3 2 2 1 1 2 3 4 3 4 4 4 4 3 3 3 3 2 3 2 2 2 2 2 2 2 3 3 4 4 4 4 4 4 4 4 4 4 5 5 6 6 6 6
3 4 3 1 2 0 3 1 1 4 1 1 1 1 5 8 9 11 15 13 6 4 5 6 7 7 5 3 2 3 3 3 4 3 3 4 3 3 3 2 2 1 0 1 1 1 1 2 2 3 3 3 3 3 3 3 2 1 0 1 1 2 2 2 3 3 2 2 2 2 2 2 2 2 2 2 0 1 2 2 3 3 3 3 3 3 3 3 3 4 4 5 5 5 5 5 6
5 3 2 1 1 2 3 1 6 4 1 2 1 1 3 3 1 1 6 5 5 4 4 4 6 7 6 5 5 6 7 6 4 4 5 5 5 5 4 3 2 1 1 1 1 1 1 2 2 2 3 3 3 3 2 3 2 2 1 1 1 1 2 2 2 2 2 2 2 2 2 2 2 2 2 1 1 2 2 2 2 3 2 2 2 2 2 2 3 3 3 4 4 3 3 4 5
1 1 2 1 3 1 5 1 1 0 2 2 3 5 2 6 6 9 6 6 10 8 9 6 9 6 5 6 6 6 6 6 3 4 4 5 5 4 3 3 3 2 2 2 2 1 2 2 2 3 3 2 2 3 2 2 2 2 2 1 1 0 1 1 1 1 1 1 2 2 2 2 1 1 1 1 1 1 1 1 2 2 1 1 1 1 1 2 2 3 2 3 3 1 3 4 4
3 3 3 0 4 2 6 2 3 0 1 6 1 6 7 6 10 6 3 2 7 2 4 4 6 4 3 6 6 7 7 5 4 4 4 5 4 4 4 4 3 3 3 3 2 1 1 3 3 3 3 2 2 2 2 2 2 2 2 2 2 1 0 1 0 0 1 1 1 1 1 1 1 1 1 0 1 0 1 1 1 0 0 0 1 1 1 1 2 2 2 2 2 2 3 4 3
1 3 2 1 1 2 1 3 1 1 4 3 2 5 7 5 6 2 5 5 4 2 1 2 3 2 5 8 7 7 7 7 4 4 4 4 3 4 4 3 4 4 4 3 3 1 1 0 2 3 2 2 2 2 2 2 1 2 2 2 2 2 1 1 1 0 0 1 1 1 1 1 0 1 1 0 1 0 0 0 0 1 1 1 1 1 2 2 2 2 1 1 1 1 2 2 2
3 3 4 3 2 3 1 0 3 3 3 3 3 2 5 6 9 1 7 4 4 1 2 3 3 4 8 8 8 7 7 6 6 6 5 5 6 6 5 5 5 4 4 3 2 2 2 1 1 1 2 2 1 1 1 1 2 1 1 2 2 2 1 1 1 0 0 1 1 1 1 1 1 1 1 0 1 1 1 1 1 2 2 2 2 2 2 2 1 1 1 1 1 1 1 1 0
2 1 2 2 2 3 2 2 2 0 4 1 2 2 7 6 6 5 5 5 6 5 4 4 5 5 5 6 6 7 8 8 7 6 4 5 5 7 7 6 7 7 6 4 4 3 4 3 3 3 3 2 2 1 1 2 2 2 2 2 2 2 2 2 2 1 1 2 2 1 1 1 2 1 1 1 2 2 2 2 2 2 3 2 3 2 2 2 1 2 1 1 2 1 1 1 0
4 3 1 1 2 2 3 1 2 2 2 2 3 4 6 8 5 6 9 7 7 4 5 5 4 4 5 6 6 7 8 8 7 6 5 4 5 5 5 5 5 5 4 4 4 5 3 2 3 3 3 3 2 2 2 2 2 2 2 2 2 2 2 2 2 2 2 2 2 1 1 2 1 2 2 2 3 3 3 3 3 3 3 3 3 3 3 2 3 3 3 3 2 2 2 1 1
2 6 7 7 6 3 2 6 5 1 3 4 3 9 2 10 6 6 6 7 6 1 4 6 7 6 6 5 6 7 7 8 7 5 3 3 3 4 4 3 3 5 6 6 5 4 4 4 3 3 3 2 2 2 2 2 2 2 2 2 3 2 2 2 2 2 3 2 2 2 1 1 3 3 2 3 3 3 3 4 4 4 4 4 4 4 3 3 3 4 4 2 2 2 2 2 2
Wind_Direction
318 345 310 283 213 251 254 54 236 122 238 222 278 204 80 151 106 150 174 134 172 175 194 109 157 160 200 325 323 332 292 253 347 251 48 87 98 116 162 147 149 157 157 161 169 170 177 178 180 184 178 180 171 175 180 187 194 204 216 223 228 223 247 233 254 306 25 357 42 36 27 17 15 30 344 346 50 351 15 29 34 17 19 18 23 21 15 17 26 15 14 18 16 18 24 24 24
334 340 233 223 279 249 160 322 277 194 250 264 206 210 115 143 164 197 175 175 84 129 151 184 186 251 297 302 306 314 251 224 330 3 111 68 145 210 185 168 158 166 165 166 171 172 177 174 181 184 178 172 177 179 178 194 203 203 213 220 217 225 244 205 237 300 233 38 44 48 25 6 30 9 353 348 353 43 342 15 34 2 21 13 9 18 14 14 23 15 22 18 20 23 29 30 28
349 333 149 206 145 347 104 233 247 78 261 250 117 178 111 172 198 184 171 157 81 91 119 114 145 242 244 254 253 234 76 274 258 244 282 93 229 182 179 180 169 168 173 168 174 176 176 172 180 183 177 178 181 174 184 194 205 209 213 225 220 224 203 222 236 252 159 46 42 67 15 48 0 19 14 337 354 8 23 340 22 4 21 14 12 10 15 13 25 20 27 29 24 30 33 35 33
269 15 264 202 196 270 230 209 280 236 267 357 305 137 179 195 183 148 138 109 86 123 150 166 186 165 230 228 250 5 270 257 211 187 211 185 230 108 161 171 169 163 178 176 178 178 180 168 179 183 183 182 174 178 187 198 207 207 219 220 225 206 214 205 218 202 228 182 203 18 44 16 27 24 358 3 340 358 19 340 346 22 26 13 12 10 26 11 28 21 34 30 30 34 35 39 38
205 39 341 247 269 138 316 27 333 248 260 46 20 134 207 210 150 137 137 99 102 179 180 158 242 140 260 285 341 262 60 137 221 205 284 45 78 132 149 160 163 165 178 179 179 180 181 171 178 184 189 181 177 185 190 201 201 209 212 213 212 213 208 208 196 206 209 224 176 1 353 37 25 21 7 351 358 5 343 17 342 7 30 17 6 24 15 25 25 32 33 31 32 31 38 39 39
179 35 38 319 297 41 154 201 189 236 11 15 275 61 209 193 154 143 134 126 124 209 231 192 247 131 205 208 214 246 184 223 77 182 232 96 131 139 147 152 163 169 171 175 183 182 182 172 179 185 186 180 183 189 194 199 203 210 211 211 208 213 209 203 192 193 215 173 346 151 26 19 49 359 15 4 12 354 360 11 15 354 40 17 25 21 28 18 36 34 34 28 30 30 34 37 40
215 212 46 84 121 246 293 257 271 276 85 306 310 18 15 169 135 140 143 155 167 226 186 223 240 270 257 207 236 243 253 63 208 95 192 74 118 150 145 157 164 166 165 173 181 185 181 175 179 185 184 185 189 193 196 199 205 209 214 209 213 209 205 197 204 200 188 223 178 272 25 62 15 35 7 26 16 15 18 12 43 17 28 30 32 38 35 31 26 35 31 28 24 27 32 32 36
109 245 23 257 150 283 222 305 272 258 71 267 12 291 50 157 150 171 165 185 179 195 182 227 252 264 286 81 277 98 187 216 251 58 109 132 139 154 160 160 168 168 169 172 179 185 171 179 182 187 189 190 193 199 200 202 205 210 210 213 210 209 203 204 198 196 197 196 209 159 134 48 47 41 28 50 34 27 26 43 41 34 37 42 43 44 43 29 30 30 29 26 25 28 29 31 32
24 55 184 241 220 127 240 262 299 83 303 200 243 255 331 164 173 173 175 198 70 218 157 195 202 202 146 207 229 51 245 202 220 92 180 150 163 162 167 175 176 168 174 174 177 181 177 185 187 190 194 196 199 203 206 205 207 210 214 212 212 209 207 204 206 201 204 202 198 182 135 86 45 35 48 65 45 45 50 37 42 36 40 48 50 49 40 36 31 25 24 20 27 31 32 32 32
98 312 189 268 8 258 299 252 242 96 252 113 282 154 172 161 176 204 181 191 201 166 186 129 184 233 354 289 278 241 220 87 185 214 200 187 173 172 179 185 186 170 173 176 177 179 181 185 192 195 198 202 205 207 211 208 210 214 213 214 213 211 208 208 204 210 202 198 205 187 170 155 93 59 69 48 69 59 48 43 42 36 40 46 47 43 39 36 27 20 18 25 30 33 33 34 35
223 70 9 234 234 271 256 289 239 160 200 187 243 207 166 161 175 190 205 204 156 201 111 158 203 241 266 267 259 84 100 166 182 213 192 183 173 180 188 190 192 179 175 177 177 181 180 184 195 201 204 207 209 210 213 212 214 215 216 216 213 213 213 209 211 208 205 208 199 199 195 171 169 101 81 71 68 64 52 44 50 34 35 47 41 37 34 31 24 18 18 29 35 35 30 34 35
237 173 186 257 248 268 356 301 317 306 227 203 178 148 158 165 168 192 204 215 200 215 207 172 183 207 220 259 263 148 171 212 207 158 164 169 180 188 193 186 192 187 181 175 176 183 183 186 192 205 210 211 212 213 215 216 216 217 218 217 216 215 215 213 211 211 211 208 206 209 202 199 166 157 115 111 68 52 49 44 41 30 30 39 39 33 26 25 22 15 21 29 35 35 31 30 32
301 125 218 241 297 249 41 270 340 319 287 207 171 142 145 163 191 206 200 211 174 208 229 200 56 238 246 206 308 110 220 180 161 212 152 182 181 179 191 190 190 188 179 177 182 189 189 189 194 200 206 210 216 217 218 219 220 219 220 220 217 218 217 216 216 216 217 211 215 212 212 210 186 179 181 145 109 42 48 42 21 11 14 30 26 23 25 18 17 17 19 21 34 35 29 27 26
246 215 213 257 48 320 231 344 349 220 194 103 63 131 167 174 213 211 183 206 215 211 69 194 201 246 267 290 254 234 191 96 38 189 165 176 163 167 183 189 187 189 188 183 191 193 194 197 197 201 201 207 211 215 224 225 223 222 221 222 222 220 219 219 218 220 218 219 214 216 217 206 199 196 202 191 169 78 59 34 7 349 352 5 359 8 12 9 8 11 12 19 29 34 29 22 20
138 206 130 44 139 247 206 228 164 213 118 143 129 155 165 234 157 197 206 215 232 175 102 219 193 183 234 190 186 125 96 38 34 145 149 151 153 164 173 187 188 192 190 196 200 199 200 199 201 203 206 207 210 211 211 217 226 226 223 224 225 224 223 221 222 222 223 221 215 215 216 212 204 206 206 204 171 164 61 280 313 322 332 332 347 344 356 353 358 2 7 13 24 37 25 20 14
114 154 97 237 209 239 141 225 272 218 122 150 137 134 183 156 198 183 231 247 294 47 195 206 201 220 347 237 39 72 46 43 120 145 134 142 151 158 178 196 196 197 201 201 203 206 205 202 203 205 208 210 211 212 214 214 212 225 228 227 227 228 226 223 224 224 225 220 216 208 208 215 210 212 191 221 186 206 211 296 326 307 308 317 323 338 339 341 344 347 351 360 22 38 25 15 11
178 275 200 203 229 212 141 207 174 122 97 136 132 177 181 195 166 259 32 284 249 218 187 222 197 250 248 227 61 68 79 105 142 146 144 156 173 183 192 198 200 199 203 206 208 204 205 208 205 207 210 212 214 216 220 218 219 207 230 235 232 230 227 224 218 219 214 208 204 195 200 222 223 225 204 227 180 225 157 216 248 272 281 294 305 314 316 318 323 323 329 344 3 30 21 320 21
220 211 248 226 341 210 160 188 187 350 181 167 181 194 195 193 164 197 165 240 233 245 243 240 242 245 243 244 108 90 144 178 168 169 175 175 188 189 201 203 198 209 200 206 208 206 203 207 209 211 211 212 213 214 217 217 218 219 227 226 226 225 225 223 222 226 220 227 196 210 218 219 223 223 228 221 242 220 205 197 241 244 255 265 282 284 296 296 297 298 298 314 321 351 313 280 248
230 145 248 298 195 50 267 13 107 310 37 141 173 187 218 165 161 169 211 223 211 245 247 236 246 250 244 244 223 199 184 197 190 205 192 194 195 205 204 197 205 209 209 206 205 203 204 204 207 211 215 210 212 216 217 219 219 220 222 227 228 225 226 220 228 221 226 221 218 217 221 226 222 229 236 185 269 272 263 206 228 237 241 251 251 258 265 273 277 280 279 291 301 284 266 268 279
71 248 242 253 39 60 18 3 85 351 318 121 158 196 224 107 215 100 230 242 183 231 233 216 231 247 236 235 223 219 210 224 219 218 217 215 210 213 213 208 207 212 211 203 201 194 201 205 205 210 210 209 208 214 216 217 218 219 221 221 224 225 224 223 225 228 223 223 219 224 228 223 216 238 154 159 206 239 214 203 220 236 238 237 233 246 232 238 247 251 251 264 250 244 271 274 282
105 221 245 48 34 148 88 262 23 350 344 40 135 97 213 239 219 197 249 246 238 238 232 222 220 230 245 218 218 216 215 222 222 223 231 233 229 226 227 221 216 211 210 201 199 200 198 202 202 206 206 207 208 213 212 215 213 216 219 221 222 223 222 222 224 223 224 222 219 227 228 217 219 234 229 220 227 229 240 246 210 218 215 220 183 242 243 214 218 240 232 219 253 254 256 265 275
153 301 14 333 36 297 84 354 33 20 12 109 127 158 212 65 218 228 235 239 252 212 234 228 249 269 291 245 219 221 225 226 228 224 226 230 229 228 229 234 231 221 182 205 210 206 200 202 201 202 202 205 206 211 212 212 211 215 216 218 220 222 223 223 224 223 222 219 219 222 218 223 225 227 225 226 229 233 238 241 235 227 224 231 196 239 235 232 239 240 238 246 250 249 254 263 266
216 124 292 267 336 302 76 310 87 179 142 164 176 214 58 205 244 220 227 235 239 70 53 8 335 2 12 330 264 236 230 230 230 228 227 230 234 236 233 229 227 222 211 220 212 212 203 201 202 201 201 203 207 209 212 209 209 216 218 217 215 222 220 221 224 225 224 217 212 211 221 225 224 228 223 222 228 229 237 234 235 228 226 234 219 230 232 231 238 241 242 242 243 244 246 247 244
292 113 156 178 231 26 344 43 109 201 201 203 10 19 233 159 253 126 229 239 246 253 187 245 262 269 255 270 241 243 240 237 237 234 231 231 230 231 230 231 229 231 220 218 212 207 199 200 198 200 205 202 205 205 209 210 214 214 217 218 219 224 221 221 225 224 220 215 213 220 217 228 229 228 227 225 226 226 231 235 238 233 230 234 226 223 231 234 230 234 239 242 238 237 242 238 243
205 173 197 131 234 94 41 70 185 211 239 339 238 224 233 209 265 14 252 248 246 251 274 287 289 281 266 256 258 252 249 246 245 243 242 241 242 246 242 240 239 233 236 228 217 213 208 199 196 201 204 206 207 201 207 212 213 214 213 214 220 217 222 226 225 219 217 221 215 211 211 223 228 232 232 228 226 226 230 228 230 235 229 231 218 226 221 233 235 237 236 239 239 245 245 241 238
208 107 146 156 144 83 59 169 187 211 205 204 208 241 238 232 79 252 251 261 90 315 274 261 270 270 261 252 254 252 251 251 249 247 242 244 243 242 243 236 233 232 233 232 222 219 214 198 199 201 202 204 205 201 205 208 209 211 211 214 218 210 219 224 219 218 223 218 216 207 208 220 227 230 229 229 223 229 229 226 230 234 232 226 217 232 220 230 243 239 239 241 246 248 248 250 247
125 118 120 127 85 238 190 219 151 215 222 183 257 271 242 135 222 281 176 61 350 265 252 224 249 269 269 264 262 252 251 253 250 254 254 241 241 235 243 235 229 234 233 229 224 221 206 197 203 205 205 202 200 202 203 210 208 211 210 210 211 214 216 215 216 222 221 219 220 206 205 211 225 229 231 228 226 227 230 229 233 229 228 222 218 230 224 230 240 247 246 251 253 255 254 251 242
93 123 108 95 173 151 147 221 98 201 169 195 256 276 290 171 210 250 237 160 310 317 295 283 270 283 287 285 277 271 259 262 261 246 250 248 238 230 233 227 231 232 227 230 226 217 204 203 208 207 205 202 201 204 204 210 212 213 211 208 211 214 210 213 217 217 220 220 215 206 207 209 216 226 225 226 228 227 231 231 232 228 230 220 214 222 225 224 240 247 240 248 258 262 262 254 244
130 154 201 172 216 191 31 323 24 301 108 166 229 280 217 173 223 244 360 4 347 302 292 294 299 298 294 291 288 276 268 277 269 257 253 254 253 245 245 235 233 232 233 234 229 212 210 209 211 209 205 203 203 207 207 211 212 213 210 212 214 207 207 212 217 217 218 218 210 207 210 211 211 220 220 220 219 230 232 231 234 230 230 220 214 213 221 232 232 234 234 224 238 239 248 251 241
127 220 286 175 185 167 20 327 309 262 50 339 248 305 223 190 226 221 157 348 326 302 293 303 303 298 291 281 279 280 276 272 260 253 263 260 255 251 250 248 236 235 241 229 219 221 214 210 200 202 200 202 203 209 210 209 209 211 213 213 214 208 211 213 216 217 216 216 210 207 207 211 215 219 221 217 218 227 230 232 235 234 224 212 214 207 217 221 232 230 237 228 234 237 244 245 244
231 158 242 1 277 157 40 22 323 203 4 329 273 274 289 247 185 149 46 74 9 312 301 296 292 288 276 265 258 275 281 266 278 281 274 266 260 255 251 253 240 236 235 235 223 226 216 205 194 204 194 205 203 209 210 213 209 209 208 211 212 210 214 216 217 216 215 214 212 209 207 210 215 219 216 220 217 225 231 235 232 233 221 207 216 215 224 228 231 238 235 238 245 241 244 248 245
351 231 174 155 297 118 84 32 25 29 23 330 314 264 262 295 298 80 98 79 28 305 292 286 283 276 272 276 288 290 291 280 270 263 264 275 261 258 253 252 244 238 236 239 236 220 219 214 198 208 198 205 204 207 210 212 213 211 211 212 213 206 213 217 218 217 216 214 210 216 205 209 214 215 215 214 224 224 230 238 236 227 204 217 222 217 216 235 235 236 235 237 254 252 246 247 239
64 303 291 232 257 317 267 73 29 10 278 291 291 287 318 299 24 83 139 16 325 292 287 284 279 274 276 290 299 292 297 304 275 318 7 332 294 272 265 259 246 243 241 239 235 223 223 218 207 210 208 204 208 207 209 211 212 213 214 213 215 207 210 213 218 219 216 213 213 216 209 207 211 212 213 209 220 226 230 235 237 221 205 215 224 223 227 231 231 230 240 225 234 259 258 258 251
212 5 278 40 282 10 301 131 82 348 345 280 101 245 255 264 265 216 206 240 310 281 274 279 275 265 270 281 279 288 298 310 340 353 354 350 332 318 286 268 266 257 249 243 242 234 230 218 208 208 213 207 206 205 204 205 210 211 212 214 213 218 215 218 216 211 217 216 215 216 209 207 210 211 210 208 216 225 231 234 235 217 207 217 226 228 233 227 227 231 244 232 225 236 251 256 257
204 194 263 191 194 211 300 303 36 337 120 278 260 258 269 267 271 269 265 170 258 258 264 275 281 277 273 268 277 291 299 315 352 354 348 342 342 344 323 289 252 248 246 244 236 234 233 224 212 207 210 204 204 201 195 197 199 205 213 214 214 221 220 217 215 215 214 213 214 212 205 206 208 208 206 205 214 220 226 233 233 221 214 221 224 228 233 224 223 225 235 245 227 233 248 256 263
229 214 178 351 300 181 290 66 40 13 322 300 242 259 282 287 283 279 273 189 232 255 268 264 258 257 260 266 278 294 311 322 8 347 343 348 351 346 346 340 262 232 239 228 227 223 225 227 216 213 210 208 201 194 183 193 195 200 204 205 218 217 217 214 213 221 216 216 213 207 205 206 207 203 201 203 213 221 229 228 225 212 214 218 223 229 230 224 219 219 228 234 245 239 231 247 252
96 97 132 337 284 277 168 60 31 303 278 246 268 267 275 279 274 268 275 194 238 254 252 238 236 236 255 283 297 313 308 335 338 319 334 344 351 359 0 358 6 157 230 221 217 215 215 212 204 213 205 197 191 190 192 191 190 191 205 211 214 206 209 208 214 214 218 221 213 208 202 206 203 199 201 202 213 219 228 230 221 216 211 215 224 230 229 232 225 226 237 225 234 246 245 220 230
138 126 241 195 188 301 87 80 54 342 13 294 148 286 274 266 274 284 271 202 248 239 232 233 232 227 243 277 311 324 337 284 302 16 17 16 10 4 4 20 18 102 124 230 220 218 212 207 211 208 193 192 204 205 195 197 199 193 191 199 203 202 193 199 212 209 214 215 210 204 204 204 200 202 205 206 212 212 217 220 218 219 207 216 224 231 232 228 225 224 223 242 223 237 251 219 193
53 270 118 292 203 276 243 54 100 243 315 280 350 315 294 289 298 304 269 233 250 287 272 258 282 270 260 263 283 313 329 353 2 42 18 14 3 8 10 23 31 14 339 259 262 244 221 214 213 206 196 192 199 203 200 203 202 204 211 176 193 197 211 221 220 212 202 209 206 205 207 207 203 208 208 206 211 214 219 221 222 217 214 215 221 225 225 228 225 224 215 228 242 216 237 227 199
178 158 231 295 24 334 307 114 1 201 271 303 324 303 285 297 288 273 94 226 268 279 266 261 246 263 264 281 322 303 310 324 349 355 355 359 356 3 8 13 5 336 2 58 337 247 235 227 216 205 200 200 197 195 202 208 200 192 200 182 141 293 136 171 229 233 222 210 213 207 211 209 208 212 209 208 212 217 217 221 224 221 219 213 222 232 227 227 220 219 215 221 229 253 218 227 202
41 286 190 235 191 154 244 347 310 200 112 264 288 264 267 37 301 217 122 205 260 241 265 242 231 237 268 297 276 240 260 299 307 323 340 353 351 1 357 348 335 349 9 3 343 317 270 257 234 224 217 207 206 192 193 191 168 184 193 187 209 204 223 220 208 220 207 209 220 206 214 205 208 212 212 213 218 221 220 222 224 226 223 217 218 229 234 232 224 220 215 217 216 231 253 239 188
146 208 306 74 105 197 287 307 323 285 199 95 7 330 296 286 255 256 339 331 264 152 300 257 237 209 205 244 245 191 231 241 260 282 312 318 314 327 351 7 4 357 9 359 338 317 308 289 262 224 235 230 213 199 192 186 189 191 183 195 202 209 220 205 212 218 197 200 211 208 200 200 207 212 215 216 218 221 220 219 221 226 226 223 220 230 238 239 231 225 217 222 229 228 247 260 246
272 130 121 109 123 90 34 334 325 312 315 65 282 294 289 248 275 268 11 311 283 268 259 262 256 232 222 234 222 202 201 199 211 243 259 270 296 313 357 12 0 359 5 343 333 337 332 305 291 259 237 213 205 205 190 195 197 202 203 210 217 216 220 220 214 204 220 190 185 195 201 192 204 209 215 217 218 218 224 222 220 223 230 230 226 229 235 236 239 230 220 216 230 230 222 243 245
252 55 142 133 114 31 33 301 152 279 326 266 82 286 276 299 291 56 333 290 277 267 247 241 235 228 225 226 220 205 197 213 229 248 247 254 265 292 335 349 2 356 339 332 346 356 354 351 323 280 230 220 168 184 189 210 212 210 212 217 227 235 239 254 152 186 97 43 205 192 200 195 191 209 216 214 219 217 220 224 221 224 227 232 229 231 236 238 238 228 220 227 228 229 224 232 242
45 166 314 108 43 69 151 254 289 345 332 272 140 343 253 247 241 126 277 300 256 256 235 227 225 221 218 226 224 206 208 201 225 249 271 291 307 318 322 341 359 352 357 353 356 353 353 358 359 70 74 207 145 180 187 195 219 225 222 230 237 242 251 257 270 209 232 171 228 203 213 210 199 201 217 221 214 221 220 228 222 225 229 230 227 236 237 236 237 240 226 217 220 226 227 233 240
141 134 111 94 92 74 137 275 264 207 233 266 136 342 260 273 266 296 101 238 273 260 247 232 217 215 211 217 222 208 195 216 232 252 274 283 282 290 311 291 316 27 360 335 349 353 15 21 61 70 60 60 66 157 196 197 206 214 222 228 241 251 245 250 253 256 242 225 238 234 230 231 226 215 212 220 228 225 228 226 228 229 231 234 233 236 238 234 235 235 234 232 227 227 228 229 230
123 168 139 111 76 127 133 64 266 204 232 218 65 323 288 299 254 243 193 245 213 186 270 242 241 238 234 235 233 215 182 176 177 227 256 259 266 273 276 267 50 65 20 7 26 25 23 36 49 65 51 59 70 115 172 184 197 216 226 229 233 243 248 249 259 247 236 225 239 230 228 231 219 232 219 214 216 224 223 227 233 235 238 236 235 237 236 238 239 234 232 232 232 229 234 231 230
176 171 213 235 183 160 163 159 207 232 249 99 333 24 303 239 289 199 256 312 251 251 283 281 236 227 218 214 223 221 222 226 275 274 237 196 205 199 212 190 117 58 50 36 29 27 37 38 30 79 57 43 49 59 138 170 186 205 231 241 242 248 255 252 252 261 262 263 253 254 237 238 238 230 229 241 229 204 222 228 225 235 238 236 236 240 242 239 240 235 233 227 231 228 234 235 232
213 189 209 282 295 339 249 155 228 189 266 100 21 270 263 226 242 306 286 248 243 224 249 284 306 270 226 218 222 215 200 227 241 245 247 229 210 196 193 178 179 105 44 2 21 34 45 45 34 74 59 40 50 51 68 95 144 196 217 225 236 240 243 246 250 255 261 262 264 260 257 254 237 240 228 241 239 199 235 232 222 227 230 228 238 238 244 240 241 239 237 234 235 232 227 226 232
194 195 182 210 258 182 259 247 353 303 140 334 242 21 263 289 280 241 249 265 290 286 242 252 262 267 272 244 256 269 249 228 232 234 242 237 223 217 205 197 196 170 272 309 24 60 78 74 51 78 71 46 49 60 64 88 84 75 140 232 242 246 245 232 246 251 255 264 268 264 260 266 269 266 278 262 318 280 242 253 258 253 255 262 246 248 248 239 232 239 236 235 235 235 237 229 237
197 22 269 273 200 235 271 203 264 283 328 111 237 292 246 299 187 323 233 293 315 246 246 250 248 250 255 272 278 269 267 253 216 226 232 224 216 215 204 194 177 162 237 267 247 142 136 110 94 94 88 56 51 53 60 66 74 77 90 149 197 214 215 222 224 227 237 242 240 243 250 250 253 261 260 295 335 285 276 261 257 259 253 247 243 240 231 230 224 235 238 238 239 243 227 227 241
109 276 19 226 224 59 250 22 297 320 322 257 180 233 269 235 353 276 250 272 265 249 249 230 247 232 236 262 248 247 248 250 218 234 240 233 227 215 213 202 180 159 204 248 244 198 148 121 113 90 83 67 52 52 58 51 61 72 61 88 81 155 234 237 224 195 222 229 243 249 250 249 260 278 267 281 285 272 274 270 246 248 265 253 245 238 226 227 195 223 227 222 229 192 227 227 237
135 171 203 12 2 91 99 130 98 320 254 247 141 273 255 264 265 269 346 278 274 180 245 240 258 242 224 248 245 238 239 237 229 229 234 234 205 215 220 196 167 159 195 216 215 246 170 149 141 122 109 101 74 55 61 57 64 86 77 61 60 87 136 271 267 125 233 214 245 239 245 274 281 251 263 344 276 302 265 281 260 204 172 194 187 185 192 207 192 217 222 208 221 187 220 222 229
104 212 104 125 274 335 208 261 133 252 238 262 125 251 289 8 304 62 309 321 301 335 30 286 271 225 233 237 231 232 233 233 232 247 248 248 242 221 206 192 170 171 183 192 196 214 269 185 125 123 119 99 70 52 59 55 66 82 81 74 65 46 35 24 350 326 275 210 184 193 201 205 155 39 2 355 312 106 126 173 151 99 105 114 123 142 159 171 190 208 182 208 188 193 220 227 223
328 352 338 272 181 200 111 279 233 204 230 257 220 311 263 233 261 309 277 258 282 290 15 340 266 220 236 242 238 237 243 242 236 236 227 219 215 218 213 196 170 159 169 185 169 192 219 207 140 115 108 92 70 53 53 80 51 69 52 61 51 63 59 56 59 46 105 152 107 74 87 60 100 89 156 117 135 113 112 105 104 111 108 115 118 116 141 147 173 153 144 153 142 198 221 236 167
178 255 250 37 325 298 168 215 338 312 273 60 261 118 260 195 223 205 240 243 275 268 284 253 245 227 230 241 243 236 229 227 225 231 223 223 217 208 204 192 174 172 176 181 183 193 214 192 168 138 127 133 140 117 116 104 75 69 80 87 70 57 54 50 39 37 64 59 56 59 80 123 75 106 87 80 96 96 94 100 100 99 104 98 98 94 95 93 124 94 93 95 95 122 101 153 110
174 228 252 143 238 343 313 312 230 247 257 227 287 254 236 252 174 187 248 264 263 250 268 280 265 257 247 255 257 252 246 234 224 227 228 224 221 204 198 196 161 143 145 162 186 197 197 209 171 150 146 142 129 108 103 94 100 93 94 78 71 64 67 70 74 58 72 67 66 62 66 67 102 77 80 95 93 93 92 94 94 87 81 83 83 83 79 92 86 85 83 80 93 101 110 90 83
249 202 209 206 161 193 218 246 90 260 230 237 197 250 228 264 116 205 233 247 266 194 240 268 272 264 257 249 246 245 252 248 238 234 235 248 247 227 196 172 154 158 171 183 186 185 194 211 184 153 146 138 136 117 102 104 100 95 94 96 89 89 81 90 100 91 85 81 72 73 71 100 94 78 74 89 90 88 90 90 88 82 82 79 80 79 79 88 93 103 98 89 87 99 95 88 88